NOAA 16 DEB, 41291

Orbit data source: Space-Track

NOAA 16 DEB, 41291 is space debris in SSO originally from a launch on Thu, 21 Sep 2000 UTC launched from the Air Force Western Test Range (AFWTR). Debris objects in space refer to the collection of defunct objects orbiting the Earth. Examples of debris include non-operational satellites, rocket bodies, and fragments generated from explosions, collisions, or faulty payload assembly.

Loading next visibility...
Identifier
41291, 2000-055GT
Orbit
SSO
Country
Flag of USUS
Related business
Manufacturer
Unknown
Mission
Spacecraft
Bus & Motor
Unknown
Mass
Unknown
Launch date (UTC)
2000-09-21 (25 years ago)
Launch vehicle
Unknown
Launch site
Air Force Western Test Range (AFWTR)
Object type
Payload
Rocket body
Debris
Shape & HBR
Unknown shape, 0.1 m
Radar Cross Section
Small (<0.1 m²)

Expand to show TLE details & history
Last TLE update: 6 hours ago

TLE from 6 hours ago
0 NOAA 16 DEB
1 41291U 00055GT  26037.12396429  .00013738  00000-0  30967-2 0  9990
2 41291  98.9905 280.5097 0035930  81.1124 279.4137 14.56070235531620
Epoch: 2026-02-06T02:58Z
TLE epoch observation values (Epoch: 2026-02-06T02:58:30.514Z)
Latitude
Longitude
99.61621°
Altitude
704.771 km
Speed
7.506 km/s
True Right ascension
18h 42m 02s
True Declination
0° 00' 00"
Sunlit
Object was in daylight at epoch
Visualization orbit readout
Latitude
Unknown
Longitude
Unknown
Altitude
Unknown
Speed
Unknown
Apparent Right ascension
Unknown
Apparent Declination
Unknown
Sunlit
N/A
Visualization observer readout
Local Sidereal Time
11:16:29
Azimuth
Unknown
Elevation
Unknown
Doppler factor
Unknown
Orbital elements
Apogee altitude
728.458 km
Perigee altitude
677.573 km
Semi-major axis
7,081.153 km
Eccentricity
0.00359
Inclination
98.9905°
RAAN
280.5097°
Arg. of periapsis
81.1124°
True anomaly
279.00722°
Mean anomaly
279.4137°
Eccentric anomaly
279.21049°
Mean motion
3.6424 °/min
Orbital period
98.84 mins
BSTAR
0.0030967
Loading maneuver chart data...
Computing Atmospheric mass density...
Loading historical data...
Loading historical data...
Loading historical data...
Loading historical data...
Loading historical data...
Loading historical data...
Loading historical data...

Documentation

Showing up to 5 results
|